Regional Weather Roundup
Issued by NWS Bismarck, ND

Home | Current Version | Previous Version | Text Only | Print | Product List | Glossary On
Versions: 1 2 3 4 5 6 7 8 9 10 11 12 13 14 15 16 17 18 19 20 21 22 23 24 25 26 27 28 29 30 31 32 33 34 35 36 37 38 39 40 41 42 43 44 45 46 47 48 49 50
000
ASUS43 KBIS 210220
RWRBIS

NWR BROADCAST TEXT
NATIONAL WEATHER SERVICE BISMARCK ND
900 PM CDT SUN APR 20 2014

NOTE: "FAIR" INDICATES FEW OR NO CLOUDS BELOW 12,000 FEET WITH NO
SIGNIFICANT WEATHER AND/OR OBSTRUCTIONS TO VISIBILITY.


CITY           SKY/WX    TMP DP  RH WIND       PRES   REMARKS
WILLISTON      CLEAR     56  26  31 NW13      29.98R
MINOT          CLEAR     56  29  35 W14       29.91R
MINOT AFB      CLEAR     54  32  43 W12       29.90R
BISMARCK       MOCLDY    64  23  21 NW15      29.96R
DICKINSON      CLEAR     51  22  31 NW10      30.00R
GARRISON         N/A     54  30  40 NW9       29.95R
HETTINGER ARPT CLEAR     50  22  33 NW10      30.03R
JAMESTOWN      MOCLDY    64  34  32 NW15      29.89R
CARRINGTON     FAIR      59  36  41 NW13      29.92R
CROSBY         FAIR      48  32  53 W12       29.96R
HARVEY         FAIR      57  32  38 W13       29.92R
HAZEN          FAIR      52  27  37 W6        29.99R
LINTON         FAIR      59  28  31 NW7       29.96R
MANDAN         FAIR      57  25  28 NW14      29.97R
OAKES          FAIR      54  36  50 SE12      29.88R
RUGBY          FAIR      48  37  66 W10       29.89R
STANLEY        FAIR      48  30  49 W8        29.94R
TIOGA          FAIR      54  28  37 NW17G31   29.99R
WATFORD CITY   FAIR      54  27  35 W12       29.98R
$$

CITY           SKY/WX    TMP DP  RH WIND       PRES   REMARKS
GRAND FORKS    MOCLDY    63  40  42 S13       29.80F
GRAND FORKS AF MOCLDY    63  39  42 W20       29.85R
DEVILS LAKE    CLOUDY    54  36  50 W8        29.89R
FARGO          MOCLDY    66  37  34 SE10      29.87S
CANDO          MOCLDY    55  32  41 NW15      29.85R
CAVALIER       FAIR      61  39  44 W18G35    29.82R
GRAFTON        MOCLDY    57  37  47 W16G23    29.84R
GWINNER        CLEAR     57  36  44 SE10      29.89S
LANGDON        FAIR      55  37  50 W9        29.86R
ROLLA          FAIR      55  34  44 W21G26    29.86R
WALHALLA       LGT RAIN  57  45  62 W14G25    29.83R
$$

CITY           SKY/WX    TMP DP  RH WIND       PRES   REMARKS
ABERDEEN       MOCLDY    65  31  28 E7        29.88R
MOBRIDGE       PTCLDY    60  30  32 N10       29.93R
BUFFALO          N/A     54  21  27 NW13      30.00R
RAPID CITY     CLEAR     57  29  34 NW13      30.04R
GLASGOW        CLEAR     57  24  28 W14       30.03R
SIDNEY         CLEAR     52  27  37 W6        30.04R
WOLF POINT     CLEAR     59  24  26 W15G21    30.02R
GLENDIVE       CLEAR     55  23  28 NW14      30.07R
MILES CITY     CLEAR     57  19  22 NW12      30.07R
BAKER          CLEAR     55  18  23 NW8       30.06R
$$

CITY           SKY/WX    TMP DP  RH WIND       PRES   REMARKS
BILLINGS       PTCLDY    57  14  18 N10       30.12R
GREAT FALLS    PTCLDY    50  18  28 W6        30.14R
REGINA         MOCLDY    43  41  93 N21G28    29.92R
ESTEVAN        PTCLDY    50  36  57 W16G23    29.92R
$$




USA.gov is the U.S. government's official web portal to all federal, state and local government web resources and services.